Total_Precipitation_Accumulation
0.97 0.98 0.97 0.86 0.73 0.69 0.64 0.59 0.59 0.63 0.68 0.68 0.74 0.85 0.88 0.91 0.95 0.96 1.00 1.05 1.13 1.25 1.32 1.47 1.68 1.87 1.97 1.97 2.01 2.06 2.09 1.96 1.71 1.56 1.31 1.27 1.39 1.34 1.32 1.27 1.37 1.42 1.20
0.95 0.92 0.88 0.81 0.71 0.70 0.65 0.57 0.59 0.64 0.66 0.66 0.72 0.78 0.80 0.87 0.90 0.88 0.88 0.93 1.04 1.14 1.16 1.21 1.33 1.58 1.73 1.84 1.93 1.96 2.02 1.98 1.80 1.76 1.66 1.43 1.36 1.34 1.44 1.51 1.45 1.43 1.37
0.99 0.90 0.87 0.83 0.81 0.84 0.72 0.64 0.63 0.71 0.83 0.85 0.83 0.86 0.82 0.86 0.88 0.86 0.88 0.91 0.93 1.00 1.03 1.06 1.16 1.29 1.45 1.54 1.64 1.75 1.84 1.95 1.93 1.73 1.78 1.71 1.48 1.42 1.45 1.53 1.59 1.68 1.56
1.16 1.03 0.96 0.91 0.91 0.88 0.75 0.68 0.64 0.68 0.72 0.74 0.82 0.89 0.95 1.00 0.99 0.93 0.93 0.93 0.88 0.89 0.95 1.03 1.06 1.09 1.27 1.49 1.59 1.69 1.74 1.84 1.95 1.86 1.79 1.76 1.61 1.53 1.52 1.55 1.69 1.79 1.80
1.16 1.03 0.93 0.85 0.79 0.73 0.71 0.72 0.67 0.61 0.60 0.60 0.70 0.78 0.88 0.98 1.03 1.02 0.89 0.78 0.79 0.83 0.84 0.85 0.92 1.01 1.12 1.32 1.43 1.66 1.71 1.85 1.92 1.95 1.86 1.69 1.56 1.52 1.50 1.49 1.60 1.81 1.88
0.95 0.91 0.78 0.76 0.69 0.61 0.65 0.73 0.73 0.62 0.56 0.56 0.60 0.58 0.62 0.68 0.87 0.87 0.75 0.63 0.66 0.76 0.83 0.84 0.83 0.86 0.93 1.00 1.05 1.28 1.49 1.65 1.76 1.77 1.80 1.66 1.51 1.46 1.57 1.60 1.60 1.66 1.80
0.64 0.66 0.57 0.56 0.66 0.69 0.71 0.71 0.63 0.54 0.55 0.54 0.49 0.44 0.47 0.54 0.60 0.58 0.65 0.63 0.64 0.69 0.77 0.85 0.89 0.86 0.92 1.01 1.02 1.10 1.20 1.26 1.41 1.54 1.57 1.52 1.49 1.44 1.53 1.60 1.60 1.52 1.46
0.37 0.36 0.34 0.42 0.55 0.58 0.56 0.53 0.49 0.48 0.52 0.56 0.48 0.44 0.49 0.50 0.54 0.59 0.63 0.62 0.73 0.80 0.80 0.79 0.89 0.94 1.00 1.17 1.17 1.24 1.18 1.09 1.10 1.18 1.32 1.38 1.33 1.43 1.54 1.73 1.83 1.68 1.54
0.20 0.20 0.24 0.27 0.30 0.30 0.28 0.31 0.38 0.44 0.48 0.44 0.47 0.60 0.59 0.59 0.68 0.63 0.56 0.63 0.75 0.83 0.78 0.79 0.90 0.98 1.16 1.28 1.31 1.31 1.21 1.13 1.20 1.30 1.38 1.45 1.46 1.52 1.61 1.71 1.78 1.78 1.69
0.20 0.21 0.23 0.23 0.25 0.25 0.25 0.27 0.31 0.36 0.41 0.42 0.46 0.59 0.63 0.67 0.69 0.55 0.53 0.63 0.76 0.84 0.83 0.82 1.03 1.03 1.13 1.19 1.24 1.36 1.36 1.24 1.21 1.21 1.25 1.32 1.32 1.39 1.64 1.69 1.82 1.89 1.75
0.26 0.24 0.22 0.21 0.24 0.30 0.33 0.33 0.33 0.32 0.35 0.39 0.43 0.46 0.46 0.45 0.46 0.47 0.49 0.54 0.64 0.76 0.79 0.80 0.77 0.92 0.96 1.06 1.16 1.22 1.45 1.36 1.30 1.30 1.25 1.18 1.20 1.24 1.37 1.57 1.75 1.80 1.75
0.26 0.24 0.24 0.24 0.25 0.29 0.37 0.38 0.36 0.35 0.33 0.33 0.37 0.43 0.44 0.38 0.36 0.38 0.42 0.49 0.61 0.64 0.64 0.72 0.72 0.81 0.85 0.93 0.94 1.12 1.32 1.31 1.24 1.33 1.33 1.25 1.18 1.20 1.24 1.31 1.50 1.54 1.50
0.25 0.26 0.26 0.27 0.27 0.29 0.32 0.34 0.36 0.36 0.36 0.36 0.36 0.40 0.41 0.42 0.41 0.44 0.47 0.51 0.55 0.50 0.47 0.64 0.72 0.80 0.77 0.75 0.89 1.10 1.15 1.17 1.32 1.29 1.30 1.25 1.18 1.19 1.18 1.25 1.34 1.36 1.30
0.28 0.29 0.28 0.30 0.31 0.32 0.35 0.37 0.40 0.41 0.41 0.40 0.40 0.44 0.46 0.47 0.43 0.41 0.43 0.46 0.47 0.46 0.48 0.64 0.78 0.84 0.80 0.77 0.85 0.99 1.03 1.15 1.32 1.21 1.17 1.13 1.11 1.19 1.23 1.26 1.23 1.25 1.29
0.32 0.32 0.32 0.31 0.32 0.35 0.38 0.41 0.41 0.41 0.44 0.42 0.43 0.46 0.44 0.41 0.43 0.45 0.45 0.46 0.47 0.50 0.60 0.76 0.89 0.90 0.91 0.87 0.90 1.00 0.99 0.97 1.05 1.01 1.05 1.09 1.11 1.12 1.12 1.17 1.17 1.12 1.16
0.33 0.32 0.30 0.33 0.36 0.36 0.37 0.37 0.40 0.41 0.44 0.42 0.41 0.43 0.43 0.42 0.44 0.46 0.49 0.52 0.50 0.60 0.77 0.93 1.06 1.13 1.13 1.09 1.05 1.02 0.95 0.93 0.90 0.93 1.04 1.07 1.05 1.07 1.08 1.10 1.16 1.15 1.13
0.28 0.28 0.29 0.30 0.32 0.34 0.37 0.37 0.40 0.40 0.40 0.39 0.39 0.41 0.42 0.43 0.45 0.52 0.58 0.61 0.65 0.84 1.02 1.05 1.10 1.16 1.19 1.15 1.06 0.96 0.83 0.76 0.79 0.88 0.91 0.93 0.97 1.00 1.05 1.06 1.09 1.10 1.05
0.27 0.34 0.33 0.30 0.32 0.33 0.34 0.36 0.40 0.43 0.45 0.41 0.40 0.40 0.41 0.43 0.46 0.58 0.73 0.84 0.88 0.99 1.09 1.10 1.18 1.18 1.13 1.01 0.91 0.83 0.72 0.69 0.73 0.77 0.77 0.75 0.83 0.91 0.96 0.99 1.02 1.05 1.02
0.26 0.31 0.36 0.36 0.34 0.36 0.37 0.34 0.35 0.38 0.41 0.42 0.42 0.41 0.41 0.43 0.44 0.49 0.58 0.63 0.64 0.72 0.80 0.84 0.88 0.92 0.87 0.79 0.73 0.72 0.67 0.65 0.66 0.69 0.70 0.71 0.77 0.83 0.83 0.86 0.94 1.05 1.07
0.25 0.33 0.38 0.41 0.40 0.38 0.39 0.37 0.35 0.34 0.34 0.36 0.38 0.40 0.44 0.47 0.45 0.44 0.44 0.45 0.50 0.54 0.59 0.61 0.61 0.60 0.62 0.64 0.66 0.69 0.70 0.68 0.69 0.70 0.72 0.74 0.79 0.85 0.83 0.83 0.87 0.95 0.99
0.23 0.29 0.36 0.42 0.40 0.38 0.38 0.38 0.37 0.36 0.35 0.36 0.38 0.43 0.47 0.46 0.45 0.45 0.46 0.47 0.49 0.51 0.55 0.58 0.57 0.56 0.57 0.60 0.65 0.70 0.75 0.72 0.69 0.72 0.75 0.76 0.78 0.83 0.85 0.88 0.90 0.94 0.97
0.24 0.27 0.32 0.37 0.42 0.44 0.40 0.37 0.37 0.36 0.35 0.36 0.38 0.41 0.47 0.46 0.49 0.49 0.50 0.53 0.54 0.55 0.55 0.58 0.59 0.60 0.63 0.65 0.71 0.78 0.81 0.80 0.76 0.75 0.77 0.78 0.79 0.81 0.84 0.87 0.91 0.97 1.00
0.29 0.31 0.33 0.36 0.39 0.46 0.47 0.42 0.41 0.41 0.40 0.40 0.41 0.41 0.43 0.44 0.48 0.50 0.50 0.53 0.58 0.57 0.55 0.57 0.61 0.63 0.63 0.62 0.67 0.75 0.82 0.83 0.83 0.83 0.85 0.86 0.87 0.89 0.92 0.92 0.90 0.91 0.96
0.34 0.35 0.35 0.35 0.36 0.39 0.42 0.45 0.48 0.47 0.45 0.45 0.44 0.44 0.44 0.44 0.47 0.49 0.49 0.50 0.55 0.58 0.58 0.60 0.62 0.64 0.66 0.68 0.72 0.75 0.77 0.83 0.88 0.94 0.98 0.99 0.96 0.95 0.98 0.99 0.97 0.97 1.04
0.32 0.35 0.36 0.37 0.38 0.40 0.43 0.46 0.50 0.55 0.53 0.51 0.51 0.52 0.51 0.50 0.51 0.55 0.57 0.55 0.55 0.57 0.59 0.61 0.64 0.66 0.70 0.73 0.75 0.80 0.93 0.97 0.93 0.93 0.96 1.00 0.97 0.97 1.01 1.01 1.01 1.02 1.07
0.31 0.35 0.39 0.40 0.43 0.46 0.48 0.49 0.52 0.56 0.58 0.57 0.56 0.55 0.56 0.58 0.58 0.60 0.65 0.67 0.67 0.66 0.67 0.71 0.72 0.69 0.65 0.65 0.67 0.73 0.83 0.85 0.87 0.92 0.93 0.98 1.02 1.01 1.02 1.06 1.04 1.04 1.07